GW2822 Weather Reports


time (UTC)temp
C
wind
direction
speed
KPH
gust
KPH
rain 1hr
cm
rain 24hr
cm
rain mn
cm
humidity
%
barometer
mb
20260504215023 26 165 14.5 24.1 0.00 0.00 0.00 65 1007.6
20260504214536 26 182 16.1 27.4 0.00 0.00 0.00 66 1007.7
20260504214051 26 196 14.5 24.1 0.00 0.00 0.00 66 1007.7
20260504213510 26 180 12.9 33.8 0.00 0.00 0.00 66 1007.7
20260504213023 26 184 17.7 33.8 0.00 0.00 0.00 65 1007.8
20260504212534 26 213 9.7 24.1 0.00 0.00 0.00 66 1007.8
20260504212052 26 198 12.9 25.7 0.00 0.00 0.00 65 1007.9
20260504211513 26 205 12.9 25.7 0.00 0.00 0.00 66 1008.0
20260504211017 26 176 17.7 25.7 0.00 0.00 0.00 64 1008.2
20260504210528 26 168 14.5 30.6 0.00 0.00 0.00 64 1008.1
20260504210033 26 182 14.5 29.0 0.00 0.00 0.00 64 1008.1
20260504205538 26 178 9.7 29.0 0.00 0.00 0.00 64 1008.2
20260504205045 26 210 16.1 25.7 0.00 0.00 0.00 63 1008.5
20260504204505 26 182 16.1 27.4 0.00 0.00 0.00 63 1008.6
20260504204018 27 192 17.7 25.7 0.00 0.00 0.00 63 1008.5
20260504203535 27 164 11.3 25.7 0.00 0.00 0.00 65 1008.6
20260504203056 26 186 16.1 25.7 0.00 0.00 0.00 64 1008.7
20260504202600 26 159 14.5 25.7 0.00 0.00 0.00 64 1008.9
20260504202502 26 137 14.5 25.7 0.00 0.00 0.00 64 1008.9
20260504202012 26 236 11.3 30.6 0.00 0.00 0.00 64 1009.0
20260504201526 27 134 14.5 33.8 0.00 0.00 0.00 62 1009.0
20260504201037 27 176 12.9 27.4 0.00 0.00 0.00 63 1008.9
20260504200552 27 165 14.5 25.7 0.00 0.00 0.00 63 1009.2
20260504200042 26 133 12.9 25.7 0.00 0.00 0.00 64 1009.1
20260504195555 26 157 14.5 27.4 0.00 0.00 0.00 64 1009.2
20260504195014 26 201 12.9 29.0 0.00 0.00 0.00 63 1009.4
20260504194523 26 143 14.5 25.7 0.00 0.00 0.00 65 1009.3
20260504194040 26 151 14.5 22.5 0.00 0.00 0.00 64 1009.4
20260504193552 26 244 12.9 27.4 0.00 0.00 0.00 64 1009.4
20260504193009 26 165 14.5 35.4 0.00 0.00 0.00 63 1009.5
20260504192523 26 221 19.3 33.8 0.00 0.00 0.00 63 1009.6
20260504192037 26 228 17.7 37.0 0.00 0.00 0.00 64 1009.6
20260504191552 26 222 19.3 37.0 0.00 0.00 0.00 64 1009.7
20260504191003 26 198 12.9 22.5 0.00 0.00 0.00 65 1009.7
20260504190516 26 200 12.9 22.5 0.00 0.00 0.00 65 1009.9
20260504190016 25 191 14.5 30.6 0.00 0.00 0.00 65 1009.9
20260504185527 25 164 16.1 30.6 0.00 0.00 0.00 65 1009.9
20260504185043 25 169 12.9 27.4 0.00 0.00 0.00 66 1010.0
20260504184554 25 166 12.9 27.4 0.00 0.00 0.00 65 1010.1
20260504184007 25 209 16.1 29.0 0.00 0.00 0.00 65 1010.2
20260504183517 25 198 12.9 29.0 0.00 0.00 0.00 65 1010.3
20260504183031 25 167 12.9 29.0 0.00 0.00 0.00 67 1010.4
20260504182541 25 211 14.5 27.4 0.00 0.00 0.00 66 1010.5
20260504182055 25 180 9.7 27.4 0.00 0.00 0.00 69 1010.7
20260504181507 24 161 16.1 24.1 0.00 0.00 0.00 67 1010.7
20260504181024 24 163 11.3 24.1 0.00 0.00 0.00 68 1010.8
20260504180533 24 179 12.9 30.6 0.00 0.00 0.00 69 1010.7
20260504180028 23 197 19.3 30.6 0.00 0.00 0.00 69 1010.7
20260504175543 23 198 11.3 29.0 0.00 0.00 0.00 69 1010.7
20260504175057 23 178 11.3 24.1 0.00 0.00 0.00 70 1010.8
20260504174510 23 207 11.3 24.1 0.00 0.00 0.00 71 1011.0
20260504174021 23 187 12.9 24.1 0.00 0.00 0.00 70 1011.1
20260504173537 23 178 12.9 24.1 0.00 0.00 0.00 70 1011.1
20260504173102 23 209 11.3 22.5 0.00 0.00 0.00 70 1011.2
20260504172509 23 178 16.1 24.1 0.00 0.00 0.00 70 1011.3
20260504172019 23 231 14.5 32.2 0.00 0.00 0.00 70 1011.2
20260504171537 23 188 19.3 32.2 0.00 0.00 0.00 71 1011.3
20260504171043 23 130 12.9 32.2 0.00 0.00 0.00 73 1011.4
20260504170556 23 206 14.5 25.7 0.00 0.00 0.00 74 1011.7
20260504151018 19 223 11.3 30.6 0.00 0.00 0.00 82 1012.4
20260504150528 19 168 11.3 24.1 0.00 0.00 0.00 82 1012.3
20260504141035 17 178 9.7 24.1 0.00 0.00 0.00 86 1012.4
20260504140551 17 147 12.9 24.1 0.00 0.00 0.00 86 1012.3
20260504130506 16 196 3.2 12.9 0.00 0.00 0.00 88 1012.6
20260504110557 15 183 0.0 1.6 0.00 0.00 0.00 87 1012.2
20260504100527 15 171 0.0 6.4 0.00 0.00 0.00 85 1012.7
20260504081558 16 154 1.6 11.3 0.00 0.00 0.00 81 1013.4
20260504081013 16 173 4.8 9.7 0.00 0.00 0.00 81 1013.3
20260504080523 16 153 3.2 11.3 0.00 0.00 0.00 81 1013.3
20260504050527 17 171 6.4 12.9 0.00 0.00 0.00 70 1015.6
20260504050020 18 142 4.8 16.1 0.00 0.00 0.00 70 1015.6
20260504045531 18 184 6.4 17.7 0.00 0.00 0.00 70 1015.6
20260504045043 18 134 8.0 17.7 0.00 0.00 0.00 69 1015.5
20260504044511 18 135 6.4 16.1 0.00 0.00 0.00 69 1015.6
20260504044013 18 144 6.4 14.5 0.00 0.00 0.00 69 1015.6
20260504043532 18 165 4.8 12.9 0.00 0.00 0.00 69 1015.7
20260504043054 18 125 4.8 12.9 0.00 0.00 0.00 69 1015.7
20260504042504 18 109 6.4 14.5 0.00 0.00 0.00 69 1015.5
20260504042013 18 159 4.8 14.5 0.00 0.00 0.00 69 1015.7
20260504041539 18 152 8.0 14.5 0.00 0.00 0.00 68 1015.7
20260504041039 18 142 3.2 12.9 0.00 0.00 0.00 68 1015.7
20260504040559 17 161 4.8 12.9 0.00 0.00 0.00 68 1015.7
20260504040050 17 180 3.2 11.3 0.00 0.00 0.00 68 1015.8
20260504035507 17 136 3.2 12.9 0.00 0.00 0.00 68 1015.7
20260504035018 17 126 4.8 12.9 0.00 0.00 0.00 67 1015.7
20260504034539 17 140 6.4 11.3 0.00 0.00 0.00 68 1015.7
20260504034048 17 157 4.8 11.3 0.00 0.00 0.00 68 1015.8
20260504033557 16 169 1.6 11.3 0.00 0.00 0.00 68 1015.7
20260504033018 16 148 3.2 11.3 0.00 0.00 0.00 70 1015.7
20260504032528 16 141 1.6 12.9 0.00 0.00 0.00 71 1015.8
20260504032043 16 155 3.2 12.9 0.00 0.00 0.00 72 1015.7
20260504031553 15 105 4.8 12.9 0.00 0.00 0.00 74 1015.6
20260504031011 16 130 0.0 0.0 0.00 0.00 0.00 73 1015.4
20260504030521 16 130 0.0 0.0 0.00 0.00 0.00 73 1015.4
20260504030017 16 130 0.0 0.0 0.00 0.00 0.00 73 1015.4
20260504025531 16 130 0.0 0.0 0.00 0.00 0.00 72 1015.6
20260504025045 16 130 0.0 0.0 0.00 0.00 0.00 71 1015.6
20260504024558 16 130 0.0 0.0 0.00 0.00 0.00 70 1015.7
20260504024506 16 130 0.0 0.0 0.00 0.00 0.00 70 1015.6
20260504024021 17 130 0.0 0.0 0.00 0.00 0.00 68 1015.6
20260504023539 17 130 0.0 0.0 0.00 0.00 0.00 68 1015.6
20260504023049 17 130 0.0 0.0 0.00 0.00 0.00 68 1015.5
20260504022505 17 130 0.0 0.0 0.00 0.00 0.00 67 1015.5
20260504022016 18 130 0.0 0.0 0.00 0.00 0.00 64 1015.5
20260504021528 18 130 0.0 0.0 0.00 0.00 0.00 63 1015.5
20260504021047 18 130 0.0 0.0 0.00 0.00 0.00 63 1015.5
20260504020503 18 130 0.0 0.0 0.00 0.00 0.00 61 1015.5
20260504020105 19 130 0.0 0.0 0.00 0.00 0.00 59 1015.6
20260504015509 19 130 0.0 0.0 0.00 0.00 0.00 60 1015.5
20260504015022 20 130 0.0 0.0 0.00 0.00 0.00 58 1015.5
20260504014541 20 130 0.0 1.6 0.00 0.00 0.00 55 1015.4
20260504014051 20 130 0.0 1.6 0.00 0.00 0.00 56 1015.3
20260504013510 20 130 0.0 1.6 0.00 0.00 0.00 57 1015.3
20260504013031 20 130 0.0 1.6 0.00 0.00 0.00 52 1015.2
20260504012537 21 130 0.0 1.6 0.00 0.00 0.00 51 1015.1
20260504012051 21 130 0.0 1.6 0.00 0.00 0.00 51 1015.1
20260504011504 21 130 0.0 3.2 0.00 0.00 0.00 50 1015.2
20260504011018 21 130 0.0 11.3 0.00 0.00 0.00 50 1015.0
20260504010529 21 128 3.2 11.3 0.00 0.00 0.00 49 1015.0
20260504010023 21 147 3.2 11.3 0.00 0.00 0.00 49 1014.9
20260504005537 21 121 3.2 11.3 0.00 0.00 0.00 49 1014.9
20260504005053 21 151 3.2 11.3 0.00 0.00 0.00 49 1014.9
20260504004511 22 123 3.2 12.9 0.00 0.00 0.00 49 1014.9
20260504004018 22 161 4.8 12.9 0.00 0.00 0.00 49 1014.9
20260504003532 22 144 1.6 11.3 0.00 0.00 0.00 49 1015.0
20260504003046 22 161 4.8 8.0 0.00 0.00 0.00 49 1015.1
20260504002505 22 155 1.6 14.5 0.00 0.00 0.00 49 1015.1
20260504002017 22 131 3.2 16.1 0.00 0.00 0.00 47 1015.2
20260504001535 22 159 6.4 16.1 0.00 0.00 0.00 47 1015.3
20260504001048 22 151 8.0 14.5 0.00 0.00 0.00 46 1015.3
20260504000508 22 111 8.0 16.1 0.00 0.00 0.00 46 1015.3
20260504000106 23 115 6.4 16.1 0.00 0.00 0.00 46 1015.4
20260504000004 23 130 6.4 16.1 0.00 0.00 0.00 45 1015.5
20260503235512 23 153 4.8 19.3 0.00 0.00 0.00 45 1015.4
20260503235027 23 119 9.7 19.3 0.00 0.00 0.00 44 1015.5
20260503234536 23 130 6.4 22.5 0.00 0.00 0.00 46 1015.5
20260503234055 23 163 4.8 22.5 0.00 0.00 0.00 45 1015.5
20260503233508 23 167 8.0 22.5 0.00 0.00 0.00 44 1015.6
20260503233024 23 126 9.7 22.5 0.00 0.00 0.00 44 1015.7
20260503232536 24 155 9.7 19.3 0.00 0.00 0.00 42 1015.6
20260503232052 24 111 8.0 14.5 0.00 0.00 0.00 44 1015.6
20260503231505 24 137 9.7 22.5 0.00 0.00 0.00 42 1015.6
20260503231018 24 149 9.7 17.7 0.00 0.00 0.00 43 1015.6
20260503230528 24 147 9.7 22.5 0.00 0.00 0.00 43 1015.6
20260503230036 24 169 8.0 22.5 0.00 0.00 0.00 43 1015.6
20260503225532 24 143 9.7 20.9 0.00 0.00 0.00 42 1015.7
20260503225048 24 136 8.0 20.9 0.00 0.00 0.00 44 1015.7
20260503224606 24 138 9.7 19.3 0.00 0.00 0.00 42 1015.7
20260503224505 24 115 9.7 19.3 0.00 0.00 0.00 43 1015.7
20260503224020 24 141 9.7 19.3 0.00 0.00 0.00 42 1015.6
20260503223532 24 174 9.7 19.3 0.00 0.00 0.00 42 1015.7
20260503223043 24 129 9.7 22.5 0.00 0.00 0.00 43 1015.7
20260503222555 24 129 11.3 22.5 0.00 0.00 0.00 43 1015.9
20260503222010 24 169 11.3 27.4 0.00 0.00 0.00 42 1016.0
20260503221532 24 154 6.4 27.4 0.00 0.00 0.00 41 1016.1
20260503221046 25 145 9.7 24.1 0.00 0.00 0.00 42 1016.2
20260503220558 25 182 12.9 24.1 0.00 0.00 0.00 42 1016.3
20260503220048 24 175 12.9 22.5 0.00 0.00 0.00 44 1016.4
20260503215506 24 125 9.7 25.7 0.00 0.00 0.00 42 1016.4